Погода Хмельницкий

Погода Хмельницкий : погода сейчас, прогноз погоды и архив. Всё, что Вы хотите узнать о погоде Хмельницкий!

Хотите узнать прогноз погоды Хмельницкий? Тогда Вам сюда: Погода Хмельницкий

Поиск расширенной информации на нашем сайте:

Другие новости

Новости СМИ2

Главная страница сайта

Новости сайта

03.07.2017

Напоминаем, что на нашем специализированном сайте Метеоцентр.Азия вы можете получить высокодетализированные автоматические прогнозы погоды по пунктам России, СНГ и мира в авиационном формате (включающие направление и скорость ветра, видимость, явления погоды, количество и форму облачности, нижнюю и верхнюю границу облачности).


Погода Хмельницкий - сегодня

Время (UTC), дата Ветер
(°,м/с) 
Видим.   Явления Облачность Т
(°С)
Тd
(°С)
f(%) Тe
(°С)
Pmin
(гПа)
dP
(гПа)
Po
(мм)
O2
(г/м3)
Тmin Tmax R s Состояние
почвы
21 17.08.17 070 (В) 10 км    3/0 верхняя 
[Ci fib]
+19.6 +13.4 67 +28  1019.2  734  273           
00 18.08.17 050 (СВ) 10 км    3/0 верхняя 
[Ci fib]
+18.2 +13.7 75 +26  1019.3  -0.1  734  275           
03 18.08.17 090 (В) 10 км    3/0 верхняя 
[Ci fib]
+17.5 +13.7 78 +26  1019  -0.3  734  275           
06 18.08.17 120 (ЮВ) 10 км    ясно 
+23.1 +13.4 54 +30  1019.1  0.8  734  270  +16.7         
09 18.08.17 170 (Ю) 10 км    1/0 верхняя 
[Ci fib]
+29.2 +8.5 27 +29  1018.4  734  266           
12 18.08.17 150 (ЮВ) 10 км    8/5 1000 м верхняя 
[Cu med, cong|Ci fib]
+29.8 +9.3 28 +30  1017.4  -0.8  734  265           
15 18.08.17 160 (Ю) 10 км    8/4 1000 м верхняя 
[Cu hum|Ci fib]
+30.2 +9.9 28 +32  1016.6  -0.7  733  264           
18 18.08.17 110 (В) 10 км    3/0 верхняя 
[Ci fib]
+24.1 +13.2 51 +30  1017.7  0.3  734  269           
21 18.08.17 110 (В) 10 км    ясно 
+20 +12.6 62 +25  1018.4  0.1  734  273           
00 19.08.17 120 (ЮВ) 10 км    ясно 
+17.8 +12.5 71 +24  1018  -0.7  733  275           
03 19.08.17 110 (В) 10 км    ясно 
+17.4 +12.6 73 +23  1018.4  0.3  733  275           
06 19.08.17 150 (ЮВ) 20000 м    ясно 
+23.5 +11.6 47 +27  1017.9  0.4  734  270  +17         
09 19.08.17 160 (Ю) 20000 м    ясно 
+30.5 +9.9 28 +32  1016.8  -0.2  734  264           
12 19.08.17 160 (Ю) 20000 м    3/3 1000 м 
[Cu hum]
+32.2 +4 17 +32  1015.9  -0.7  733  264           
15 19.08.17 150 (ЮВ) 20000 м    1/0 верхняя 
[Ci fib]
+31.3 +3.2 17 +31  1015.3  -0.7  732  264           
18 19.08.17 130 (ЮВ) 10 км    3/0 верхняя 
[Ci fib]
+24.3 +8.4 36 +24  1016.5  0.3  733  270    +32.3       
21 19.08.17 100 (В) 10 км    4/0 верхняя 
[Ci fib]
+20.7 +8.5 45 +21  1016.9  -0.1  733  273           
00 20.08.17 110 (В) 10 км    3/0 верхняя 
[Ci fib]
+18.2 +8.4 53 +19  1016.8  -0.4  732  275           
03 20.08.17 110 (В) 10 км    1/0 средняя 
[Ac trans]
+17.3 +8.9 58 +19  1016.6  -0.3  732  276           
06 20.08.17 150 (ЮВ) 20000 м    6/0 средняя, верхняя 
[Ac trans|Ci fib]
+22.7 +9.3 42 +23  1016.3  0.4  732  271  +16.4         
09 20.08.17 160 (Ю) 20000 м    5/0 верхняя 
[Ci fib]
+30.5 +10.7 29 +33  1014.8  -0.4  732  263           
12 20.08.17 150 (ЮВ) 20000 м    8/5 1200 м верхняя 
[Cu hum|Ci fib]
+32.2 +4.1 17 +32  1013.3  -1.3  731  263           
15 20.08.17 160 (Ю) 20000 м    8/4 1500 м верхняя 
[Cu hum|Ci fib]
+31.2 +6.1 21 +31  1012.3  -1.1  730  263           
18 20.08.17 120 (ЮВ) 10 км    8/3 1500 м верхняя 
[Sc|Ci fib]
+24.7 +10.3 40 +27  1013.1  730  268           
21 20.08.17 320 (СЗ) 10 км    6/3 1000 м верхняя 
[Sc|Ci fib]
+19.8 +15.5 76 +30  1014.5  0.8  731  271           
Время (UTC), дата Ветер
(°,м/с) 
Видим.   Явления Облачность Т
(°С)
Тd
(°С)
f(%) Тe
(°С)
Pmin
(гПа)
dP
(гПа)
Po
(мм)
O2
(г/м3)
Тmin Tmax R s Состояние
почвы

Для получения пояснительной информации подведите курсор к названию столбца.

ПОГОДА Хмельницкий - архив

Всё, что Вы хотите узнать о погоде Хмельницкий - удобно и подробно!

Выберите нужную дату (начиная с 1 января 2015* года) и нажмите кнопку "Найти".
Будут отображены архивные сводки погоды по пункту Хмельницкий, начиная с указанной даты.


Отображать данные в формате CSV (для использования в таблицах Excel)


Внимание! Наш архив погоды предназначен исключительно для личного некоммерческого использования в познавательных целях. Если Вам необходимы официальные справки о состоянии погоды (для производственных, юридических, коммерческих и т.п. целей), обращайтесь в органы Росгидромета.

*Примечание: данная дата относится к архиву по метеостанциям СССР (Россия, СНГ, Балтия).
Архив по метеостанциям Зарубежной Европы и Азии (кроме Китая) хранится 10 дней, по другим регионам земного шара (Китай, Африка, Америка, Австралия, Океания) - 1 день.

Хмельницкий - район местоположения метеостанции


Название, широта, долгота, высота метеостанции:
Хмельницкий 49.4°ш. 27°д. 350 м над ур. моря [Украина]

Дополнительная информация

В oтличие oт бoльшинства пoгoдных сайтoв мы публикуем пoдрoбную метеoинфoрмацию в детальнoм прoфессиoнальнoм фoрмате.

Характеристики температуры и влажнoсти вoздуха измеряются на высoте 2 м в тени вдали oт зданий и деревьев.
Скoрoсть ветра измеряется на высoте 10 м (на урoвне рoста челoвека скoрoсть ветра ниже в 1.5-2 раза). Если метеoстанция нахoдится в гoрoде или в лесу, тo скoрoсть ветра занижена на 2-4 м/с пo сравнению с oткрытым местoм. Скoрoсть ветра над акватoриями крупных рек и oзёр, а также на вершинах хoлмoв на 2-5 м/с выше, чем в oбычных услoвиях.
Атмoсфернoе давление в разных тoчках местнoсти мoжет значительнo oтличаться oт давления на метеoстанции, в зависимoсти oт услoвий рельефа (при пoдъёме на 10 м давление пoнижается примернo на 1 мм рт.ст.).